UAL361 KDEN-KOMA

Flight info

Callsign UAL361
Flight time 1h 7m
Altitude 33000
Route EEONS8 WYNDM HCT GRI HOWRY3
Aircraft B738/M-SDE2E3FGHIRWXY/LB1

Departure

Time 2026-04-22 17:02
Airport Denver International Airport (KDEN)

Arrival

Time 2026-04-22 18:10
Airport Eppley Airfield (KOMA)
Time Latitude Longitude Altitude Speed Heading
2026-04-22 16:11 39.85451 -104.67670 5365 ft 0 kts 209°
2026-04-22 16:51 39.85471 -104.67655 5361 ft 4 kts 205°
2026-04-22 16:52 39.85496 -104.67648 5364 ft 4 kts 181°
2026-04-22 16:52 39.85516 -104.67648 5365 ft 0 kts 181°
2026-04-22 16:54 39.85514 -104.67648 5365 ft 2 kts 180°
2026-04-22 16:55 39.85505 -104.67634 5365 ft 2 kts 112°
2026-04-22 16:55 39.85514 -104.67609 5365 ft 7 kts 53°
2026-04-22 16:55 39.85579 -104.67516 5363 ft 21 kts 48°
2026-04-22 16:55 39.85663 -104.67308 5364 ft 32 kts 88°
2026-04-22 16:56 39.85660 -104.66967 5365 ft 41 kts 91°
2026-04-22 16:56 39.85659 -104.66628 5365 ft 28 kts 91°
2026-04-22 16:56 39.85678 -104.66392 5365 ft 24 kts 92°
2026-04-22 16:56 39.85744 -104.66234 5365 ft 23 kts
2026-04-22 16:57 39.85901 -104.66230 5364 ft 22 kts
2026-04-22 16:57 39.86054 -104.66229 5363 ft 22 kts 359°
2026-04-22 16:57 39.86202 -104.66231 5363 ft 21 kts
2026-04-22 16:57 39.86346 -104.66224 5364 ft 20 kts 358°
2026-04-22 16:58 39.86439 -104.66227 5364 ft 20 kts 359°
2026-04-22 16:58 39.86502 -104.66038 5364 ft 19 kts 90°
2026-04-22 16:58 39.86500 -104.65868 5365 ft 19 kts 89°
2026-04-22 16:58 39.86503 -104.65703 5365 ft 18 kts 90°
2026-04-22 16:59 39.86501 -104.65544 5365 ft 17 kts 91°
2026-04-22 16:59 39.86498 -104.65391 5365 ft 17 kts 92°
2026-04-22 16:59 39.86487 -104.65244 5365 ft 16 kts 90°
2026-04-22 16:59 39.86495 -104.65103 5365 ft 15 kts 89°
2026-04-22 17:00 39.86495 -104.64966 5362 ft 15 kts 88°
2026-04-22 17:00 39.86500 -104.64711 5364 ft 14 kts 86°
2026-04-22 17:00 39.86495 -104.64590 5364 ft 15 kts 93°
2026-04-22 17:01 39.86491 -104.64426 5365 ft 18 kts 89°
2026-04-22 17:01 39.86491 -104.64262 5365 ft 18 kts 90°
2026-04-22 17:01 39.86436 -104.64136 5362 ft 21 kts 164°
2026-04-22 17:01 39.86084 -104.64133 5367 ft 80 kts 179°
2026-04-22 17:02 39.85337 -104.64139 5362 ft 134 kts 180°
2026-04-22 17:02 39.84320 -104.64188 5757 ft 155 kts 185°
2026-04-22 17:02 39.83120 -104.64233 6003 ft 191 kts 183°
2026-04-22 17:02 39.81732 -104.63916 6147 ft 225 kts 152°
2026-04-22 17:03 39.80587 -104.62344 6364 ft 251 kts 140°
2026-04-22 17:03 39.78989 -104.61408 6561 ft 263 kts 171°
2026-04-22 17:03 39.77189 -104.60582 6945 ft 287 kts 147°
2026-04-22 17:03 39.75994 -104.58537 8037 ft 288 kts 113°
2026-04-22 17:04 39.75804 -104.55941 8909 ft 298 kts 81°
2026-04-22 17:04 39.76655 -104.53473 9449 ft 312 kts 53°
2026-04-22 17:04 39.77885 -104.51072 10171 ft 317 kts 62°
2026-04-22 17:04 39.78835 -104.48458 10561 ft 336 kts 69°
2026-04-22 17:05 39.79650 -104.45485 10744 ft 361 kts 73°
2026-04-22 17:05 39.80405 -104.42311 11197 ft 373 kts 74°
2026-04-22 17:05 39.81171 -104.39064 11873 ft 377 kts 71°
2026-04-22 17:05 39.82239 -104.35923 12549 ft 383 kts 64°
2026-04-22 17:06 39.83511 -104.32854 13235 ft 388 kts 62°
2026-04-22 17:06 39.84834 -104.29771 13851 ft 393 kts 62°
2026-04-22 17:06 39.86154 -104.26644 14493 ft 395 kts 63°
2026-04-22 17:06 39.87449 -104.23495 15214 ft 396 kts 64°
2026-04-22 17:07 39.88733 -104.20315 15918 ft 396 kts 64°
2026-04-22 17:07 39.90004 -104.17139 16693 ft 395 kts 64°
2026-04-22 17:07 39.91274 -104.13952 17335 ft 399 kts 65°
2026-04-22 17:07 39.92548 -104.10714 17974 ft 402 kts 65°
2026-04-22 17:08 39.93819 -104.07456 18520 ft 406 kts 65°
2026-04-22 17:08 39.95105 -104.04154 19054 ft 410 kts 65°
2026-04-22 17:08 39.96402 -104.00824 19576 ft 415 kts 65°
2026-04-22 17:08 39.97715 -103.97457 20108 ft 419 kts 65°
2026-04-22 17:09 39.99041 -103.94054 20634 ft 423 kts 65°
2026-04-22 17:09 40.00168 -103.90515 21110 ft 424 kts 78°
2026-04-22 17:09 40.00574 -103.88026 21465 ft 423 kts 83°
2026-04-22 17:09 40.01263 -103.82940 22169 ft 428 kts 83°
2026-04-22 17:10 40.01818 -103.79111 22658 ft 432 kts 82°
2026-04-22 17:10 40.02417 -103.75248 23144 ft 436 kts 81°
2026-04-22 17:10 40.03048 -103.71361 23566 ft 440 kts 81°
2026-04-22 17:10 40.03697 -103.67443 23992 ft 442 kts 81°
2026-04-22 17:11 40.04342 -103.63563 24433 ft 445 kts 81°
2026-04-22 17:11 40.04998 -103.59602 24855 ft 447 kts 81°
2026-04-22 17:11 40.05653 -103.55625 25260 ft 450 kts 81°
2026-04-22 17:11 40.06310 -103.51617 25665 ft 453 kts 81°
2026-04-22 17:12 40.06968 -103.47580 26062 ft 455 kts 81°
2026-04-22 17:12 40.07623 -103.43541 26504 ft 456 kts 81°
2026-04-22 17:12 40.08068 -103.40792 26876 ft 458 kts 81°
2026-04-22 17:12 40.08719 -103.36765 27267 ft 460 kts 81°
2026-04-22 17:13 40.09380 -103.32660 27641 ft 463 kts 81°
2026-04-22 17:13 40.10043 -103.28535 28004 ft 466 kts 81°
2026-04-22 17:13 40.10709 -103.24383 28369 ft 468 kts 81°
2026-04-22 17:13 40.11376 -103.20215 28723 ft 470 kts 81°
2026-04-22 17:14 40.12045 -103.16019 29074 ft 473 kts 81°
2026-04-22 17:14 40.12716 -103.11805 29225 ft 475 kts 81°
2026-04-22 17:14 40.13387 -103.07582 29636 ft 475 kts 81°
2026-04-22 17:14 40.14057 -103.03362 30070 ft 473 kts 81°
2026-04-22 17:15 40.14506 -103.00524 30377 ft 471 kts 81°
2026-04-22 17:15 40.15382 -102.94981 30903 ft 470 kts 81°
2026-04-22 17:15 40.16040 -102.90795 31244 ft 470 kts 81°
2026-04-22 17:15 40.16696 -102.86609 31612 ft 469 kts 81°
2026-04-22 17:16 40.17349 -102.82438 32002 ft 468 kts 82°
2026-04-22 17:16 40.18000 -102.78268 32378 ft 467 kts 82°
2026-04-22 17:16 40.18647 -102.74110 32719 ft 466 kts 81°
2026-04-22 17:16 40.19296 -102.69924 32760 ft 471 kts 81°
2026-04-22 17:17 40.20596 -102.61518 32765 ft 469 kts 81°
2026-04-22 17:17 40.21876 -102.53217 32772 ft 464 kts 81°
2026-04-22 17:18 40.23146 -102.44925 32787 ft 465 kts 82°
2026-04-22 17:18 40.24411 -102.36613 32785 ft 466 kts 81°
2026-04-22 17:19 40.26936 -102.19922 32788 ft 468 kts 82°
2026-04-22 17:20 40.29439 -102.03202 32797 ft 467 kts 81°
2026-04-22 17:21 40.31295 -101.90693 32642 ft 463 kts 82°
2026-04-22 17:22 40.32508 -101.82467 32757 ft 462 kts 82°
2026-04-22 17:22 40.33117 -101.78303 32773 ft 468 kts 82°
2026-04-22 17:22 40.34356 -101.69817 32794 ft 480 kts 82°
2026-04-22 17:23 40.34977 -101.65548 32790 ft 485 kts 81°
2026-04-22 17:23 40.36888 -101.52372 32780 ft 491 kts 81°
2026-04-22 17:24 40.38155 -101.43571 32778 ft 491 kts 81°
2026-04-22 17:24 40.39714 -101.34855 32775 ft 492 kts 77°
2026-04-22 17:25 40.41580 -101.26225 32769 ft 492 kts 76°
2026-04-22 17:25 40.43448 -101.17568 32752 ft 492 kts 76°
2026-04-22 17:26 40.45258 -101.08896 32746 ft 492 kts 77°
2026-04-22 17:26 40.47037 -101.00208 32763 ft 492 kts 77°
2026-04-22 17:27 40.48804 -100.91521 32753 ft 492 kts 77°
2026-04-22 17:27 40.50567 -100.82823 32758 ft 492 kts 77°
2026-04-22 17:28 40.52325 -100.74128 32765 ft 492 kts 77°
2026-04-22 17:28 40.54075 -100.65436 32777 ft 492 kts 77°
2026-04-22 17:29 40.55818 -100.56738 32769 ft 492 kts 77°
2026-04-22 17:29 40.57554 -100.48040 32776 ft 492 kts 77°
2026-04-22 17:30 40.59283 -100.39342 32792 ft 492 kts 77°
2026-04-22 17:30 40.61006 -100.30633 32792 ft 492 kts 77°
2026-04-22 17:31 40.62723 -100.21920 32801 ft 492 kts 77°
2026-04-22 17:31 40.64434 -100.13200 32801 ft 492 kts 78°
2026-04-22 17:32 40.66139 -100.04470 32798 ft 492 kts 78°
2026-04-22 17:32 40.67838 -99.95732 32802 ft 492 kts 78°
2026-04-22 17:33 40.69532 -99.86988 32813 ft 493 kts 78°
2026-04-22 17:33 40.71218 -99.78237 32805 ft 493 kts 78°
2026-04-22 17:34 40.72901 -99.69468 32824 ft 493 kts 78°
2026-04-22 17:34 40.74579 -99.60687 32825 ft 494 kts 78°
2026-04-22 17:35 40.76240 -99.51956 32836 ft 494 kts 78°
2026-04-22 17:35 40.77918 -99.43097 32812 ft 495 kts 78°
2026-04-22 17:36 40.79568 -99.34344 32839 ft 495 kts 78°
2026-04-22 17:36 40.81225 -99.25508 32834 ft 496 kts 78°
2026-04-22 17:37 40.82880 -99.16652 32839 ft 497 kts 79°
2026-04-22 17:37 40.84526 -99.07798 32839 ft 497 kts 78°
2026-04-22 17:38 40.86170 -98.98914 32846 ft 497 kts 78°
2026-04-22 17:38 40.87807 -98.90032 32856 ft 498 kts 79°
2026-04-22 17:39 40.89439 -98.81131 32861 ft 498 kts 79°
2026-04-22 17:40 40.91875 -98.67768 32858 ft 499 kts 79°
2026-04-22 17:40 40.93483 -98.58897 32849 ft 485 kts 79°
2026-04-22 17:40 40.94255 -98.54639 32853 ft 468 kts 79°
2026-04-22 17:41 40.95000 -98.50512 32643 ft 457 kts 79°
2026-04-22 17:41 40.95729 -98.46454 32378 ft 450 kts 79°
2026-04-22 17:41 40.96448 -98.42432 32011 ft 447 kts 79°
2026-04-22 17:41 40.97161 -98.38444 31635 ft 444 kts 79°
2026-04-22 17:42 40.97869 -98.34480 31254 ft 441 kts 79°
2026-04-22 17:42 40.98574 -98.30607 30881 ft 438 kts 76°
2026-04-22 17:42 40.99160 -98.28004 30736 ft 434 kts 73°
2026-04-22 17:42 41.00477 -98.23041 30253 ft 431 kts 71°
2026-04-22 17:43 41.01527 -98.19337 29878 ft 428 kts 71°
2026-04-22 17:43 41.02575 -98.15649 29424 ft 426 kts 71°
2026-04-22 17:43 41.03598 -98.11990 29016 ft 422 kts 71°
2026-04-22 17:43 41.04599 -98.08349 28626 ft 419 kts 71°
2026-04-22 17:44 41.05579 -98.04735 28230 ft 416 kts 72°
2026-04-22 17:44 41.06545 -98.01139 27841 ft 413 kts 72°
2026-04-22 17:44 41.07498 -97.97563 27452 ft 410 kts 72°
2026-04-22 17:44 41.08441 -97.94017 27064 ft 407 kts 72°
2026-04-22 17:45 41.09379 -97.90485 26679 ft 405 kts 71°
2026-04-22 17:45 41.10308 -97.86978 26306 ft 402 kts 72°
2026-04-22 17:45 41.11231 -97.83490 25933 ft 400 kts 72°
2026-04-22 17:45 41.12149 -97.80016 25552 ft 398 kts 72°
2026-04-22 17:46 41.13061 -97.76559 25184 ft 396 kts 72°
2026-04-22 17:46 41.13969 -97.73119 24800 ft 395 kts 72°
2026-04-22 17:46 41.14874 -97.69685 24442 ft 393 kts 72°
2026-04-22 17:46 41.15773 -97.66263 24047 ft 393 kts 71°
2026-04-22 17:47 41.16671 -97.62843 23684 ft 391 kts 72°
2026-04-22 17:47 41.17563 -97.59435 23258 ft 391 kts 72°
2026-04-22 17:47 41.18455 -97.56037 22854 ft 388 kts 72°
2026-04-22 17:47 41.19329 -97.52705 22460 ft 386 kts 72°
2026-04-22 17:48 41.19922 -97.50433 22227 ft 384 kts 72°
2026-04-22 17:48 41.21084 -97.45966 21732 ft 381 kts 71°
2026-04-22 17:48 41.21945 -97.42659 21370 ft 378 kts 72°
2026-04-22 17:48 41.22794 -97.39401 21000 ft 376 kts 72°
2026-04-22 17:49 41.23646 -97.36131 20650 ft 374 kts 72°
2026-04-22 17:49 41.24491 -97.32876 20284 ft 371 kts 72°
2026-04-22 17:49 41.25327 -97.29637 19930 ft 370 kts 73°
2026-04-22 17:49 41.26161 -97.26408 19581 ft 368 kts 73°
2026-04-22 17:50 41.26991 -97.23198 19218 ft 367 kts 73°
2026-04-22 17:50 41.27819 -97.19985 18858 ft 366 kts 72°
2026-04-22 17:50 41.28642 -97.16798 18503 ft 364 kts 73°
2026-04-22 17:50 41.29462 -97.13611 18129 ft 364 kts 72°
2026-04-22 17:51 41.30277 -97.10439 17727 ft 362 kts 74°
2026-04-22 17:51 41.31090 -97.07273 17366 ft 360 kts 75°
2026-04-22 17:51 41.31895 -97.04135 17001 ft 358 kts 75°
2026-04-22 17:51 41.32693 -97.01016 16653 ft 355 kts 73°
2026-04-22 17:52 41.33484 -96.97930 16326 ft 351 kts 73°
2026-04-22 17:52 41.34266 -96.94858 15995 ft 348 kts 74°
2026-04-22 17:52 41.35041 -96.91825 15662 ft 345 kts 75°
2026-04-22 17:52 41.35811 -96.88812 15350 ft 342 kts 75°
2026-04-22 17:53 41.36439 -96.85791 14991 ft 336 kts 87°
2026-04-22 17:53 41.36288 -96.82744 14690 ft 324 kts 104°
2026-04-22 17:53 41.35814 -96.79838 14444 ft 319 kts 108°
2026-04-22 17:53 41.35302 -96.76994 14207 ft 314 kts 108°
2026-04-22 17:54 41.34789 -96.74188 13989 ft 309 kts 108°
2026-04-22 17:54 41.34459 -96.72356 13794 ft 308 kts 106°
2026-04-22 17:54 41.34401 -96.69485 13353 ft 318 kts 81°
2026-04-22 17:54 41.35567 -96.65930 13069 ft 311 kts 65°
2026-04-22 17:55 41.36295 -96.64273 12924 ft 303 kts 63°
2026-04-22 17:55 41.37722 -96.61120 12328 ft 300 kts 61°
2026-04-22 17:55 41.38810 -96.58719 11679 ft 306 kts 61°
2026-04-22 17:55 41.39900 -96.56310 11295 ft 301 kts 62°
2026-04-22 17:56 41.40632 -96.54690 10918 ft 303 kts 63°
2026-04-22 17:56 41.41705 -96.52305 10465 ft 303 kts 62°
2026-04-22 17:56 41.42781 -96.49909 10022 ft 302 kts 63°
2026-04-22 17:56 41.43861 -96.47507 9595 ft 301 kts 62°
2026-04-22 17:57 41.44926 -96.45126 9133 ft 299 kts 62°
2026-04-22 17:57 41.45985 -96.42733 8678 ft 298 kts 62°
2026-04-22 17:57 41.47034 -96.40363 8244 ft 296 kts 62°
2026-04-22 17:57 41.47942 -96.37922 7819 ft 292 kts 72°
2026-04-22 17:58 41.48677 -96.35411 7395 ft 289 kts 72°
2026-04-22 17:58 41.49409 -96.32914 6984 ft 289 kts 72°
2026-04-22 17:58 41.50133 -96.30435 6606 ft 286 kts 72°
2026-04-22 17:58 41.50861 -96.27968 6187 ft 286 kts 72°
2026-04-22 17:59 41.51585 -96.25516 5803 ft 283 kts 73°
2026-04-22 17:59 41.52305 -96.23102 5472 ft 278 kts 72°
2026-04-22 17:59 41.53021 -96.20705 5042 ft 277 kts 72°
2026-04-22 17:59 41.53732 -96.18331 4716 ft 274 kts 72°
2026-04-22 18:00 41.54451 -96.15976 4299 ft 274 kts 72°
2026-04-22 18:00 41.55155 -96.13646 4006 ft 269 kts 71°
2026-04-22 18:00 41.55878 -96.11313 3560 ft 273 kts 72°
2026-04-22 18:00 41.56596 -96.09013 3345 ft 264 kts 72°
2026-04-22 18:01 41.57296 -96.06743 2942 ft 262 kts 72°
2026-04-22 18:01 41.57974 -96.04543 2973 ft 253 kts 72°
2026-04-22 18:01 41.58630 -96.02406 2950 ft 242 kts 76°
2026-04-22 18:01 41.59036 -96.00308 2911 ft 224 kts 87°
2026-04-22 18:02 41.58883 -95.98424 2908 ft 191 kts 125°
2026-04-22 18:02 41.58051 -95.97197 2887 ft 174 kts 149°
2026-04-22 18:02 41.57052 -95.96284 2640 ft 172 kts 151°
2026-04-22 18:02 41.56051 -95.95435 2468 ft 167 kts 151°
2026-04-22 18:03 41.55085 -95.94629 2441 ft 157 kts 152°
2026-04-22 18:03 41.54181 -95.93851 2451 ft 151 kts 152°
2026-04-22 18:03 41.53331 -95.93112 2477 ft 142 kts 152°
2026-04-22 18:03 41.52504 -95.92399 2463 ft 146 kts 152°
2026-04-22 18:04 41.51678 -95.91685 2425 ft 137 kts 152°
2026-04-22 18:04 41.50887 -95.90984 2450 ft 139 kts 152°
2026-04-22 18:04 41.50080 -95.90272 2447 ft 136 kts 152°
2026-04-22 18:04 41.49266 -95.89621 2448 ft 142 kts 164°
2026-04-22 18:05 41.48295 -95.89493 2478 ft 138 kts 178°
2026-04-22 18:05 41.47341 -95.89429 2470 ft 138 kts 178°
2026-04-22 18:05 41.46360 -95.89398 2480 ft 144 kts 180°
2026-04-22 18:05 41.45372 -95.89385 2476 ft 137 kts 181°
2026-04-22 18:06 41.44426 -95.89387 2476 ft 134 kts 181°
2026-04-22 18:06 41.43456 -95.89393 2471 ft 140 kts 180°
2026-04-22 18:06 41.42496 -95.89395 2461 ft 134 kts 180°
2026-04-22 18:06 41.41549 -95.89400 2482 ft 141 kts 180°
2026-04-22 18:07 41.40561 -95.89406 2448 ft 142 kts 180°
2026-04-22 18:07 41.39599 -95.89409 2444 ft 136 kts 180°
2026-04-22 18:07 41.38637 -95.89414 2408 ft 140 kts 181°
2026-04-22 18:07 41.37670 -95.89394 2262 ft 138 kts 180°
2026-04-22 18:08 41.36724 -95.89422 2108 ft 135 kts 180°
2026-04-22 18:08 41.35753 -95.89427 1908 ft 140 kts 180°
2026-04-22 18:08 41.34778 -95.89435 1729 ft 140 kts 181°
2026-04-22 18:08 41.33814 -95.89439 1523 ft 136 kts 178°
2026-04-22 18:09 41.32877 -95.89443 1333 ft 136 kts 178°
2026-04-22 18:09 41.31931 -95.89449 1158 ft 135 kts 180°
2026-04-22 18:09 41.30976 -95.89452 998 ft 139 kts 179°
2026-04-22 18:09 41.30137 -95.89458 985 ft 93 kts 180°
2026-04-22 18:10 41.29714 -95.89485 989 ft 28 kts 228°
2026-04-22 18:10 41.29782 -95.89608 985 ft 19 kts
2026-04-22 18:10 41.29915 -95.89608 983 ft 19 kts 359°
2026-04-22 18:10 41.30014 -95.89695 982 ft 18 kts 302°
2026-04-22 18:11 41.30065 -95.89791 985 ft 6 kts 303°
2026-04-22 18:11 41.30068 -95.89798 985 ft 0 kts 302°